Miscellaneous Local Product
Issued by NWS Hastings, NE

Home | Current Version | Previous Version | Graphics & Text | Print | Product List | Glossary On
Versions: 1 2 3 4 5 6 7 8 9 10 11 12 13 14 15 16 17 18 19 20 21 22 23 24 25 26 27 28 29 30 31 32 33 34 35 36 37 38 39 40 41 42 43 44 45 46 47 48 49 50
000
AXUS43 KGID 281902
MISGRI

GID CWA HOURLY WEATHER ROUNDUP
NATIONAL WEATHER SERVICE HASTINGS NE
200 PM CDT TUE OCT 28 2014

NOTE: "FAIR" INDICATES FEW OR NO CLOUDS BELOW 12,000 FEET WITH NO
SIGNIFICANT WEATHER AND/OR OBSTRUCTIONS TO VISIBILITY.

...SOUTH CENTRAL NEBRASKA...

CITY           SKY/WX    TMP DP  RH WIND       PRES   REMARKS
GRAND ISLAND   SUNNY     59  29  31 NW16      30.12F
HASTINGS       SUNNY     58  29  33 NW13      30.12F
KEARNEY        SUNNY     57  25  28 NW15G21   30.13F
ORD            SUNNY     56  26  31 NW16G25   30.10F
YORK           MOSUNNY   57  28  33 NW17G24   30.12F
AURORA         SUNNY     58  24  28 NW16      30.12F
LEXINGTON      SUNNY     58  24  27 NW17      30.14F
HOLDREGE       SUNNY     57  24  28 CALM      30.14F
HEBRON         SUNNY     61  28  29 W10G16    30.12F

...NEBRASKA PANHANDLE...

CITY           SKY/WX    TMP DP  RH WIND       PRES   REMARKS
CHADRON        SUNNY     50  23  34 NW14G24   30.16F
ALLIANCE       SUNNY     50  24  36 NW16      30.16F
SCOTTSBLUFF    SUNNY     49  27  42 NW8       30.18F
SIDNEY         SUNNY     52  24  33 N12G20    30.18F

...WESTERN AND NORTH CENTRAL NEBRASKA...

CITY           SKY/WX    TMP DP  RH WIND       PRES   REMARKS
VALENTINE      SUNNY     50  25  37 NW23G31   30.11F
AINSWORTH      SUNNY     49  25  39 NW20G26   30.11F
ONEILL         SUNNY     51  30  45 NW22G30   30.10F
BROKEN BOW     SUNNY     58  24  27 NW18G25   30.11F
IMPERIAL       SUNNY     55  25  31 NW10      30.18F
NORTH PLATTE   SUNNY     58  25  28 NW17G28   30.15F
MCCOOK         SUNNY     59  24  26 NW9G20    30.17F

...EASTERN NEBRASKA...

CITY           SKY/WX    TMP DP  RH WIND       PRES   REMARKS
NORFOLK        SUNNY     53  29  39 NW22G29   30.07F
SO SIOUX CITY  MOSUNNY   53  32  44 NW17G30   30.04F
TEKAMAH        SUNNY     56  32  40 NW18G29   30.06F
COLUMBUS       SUNNY     55  27  33 NW28G36   30.10F
ALBION         SUNNY     54  26  33 NW21G30   30.10S
OMAHA EPPLEY   MOSUNNY   57  30  35 NW24G30   30.07F
MILLARD        SUNNY     58  30  35 NW18G26   30.07F
LINCOLN        MOSUNNY   59  27  29 NW18G25   30.11F
NEBRASKA CITY  MOSUNNY   59  21  23 NW17G29   30.09F
BEATRICE       MOSUNNY   58  32  37 NW10      30.11F
FALLS CITY     SUNNY     62  31  31 W14G23    30.10F

...NORTHERN KANSAS...

CITY           SKY/WX    TMP DP  RH WIND       PRES   REMARKS
GOODLAND       SUNNY     55  23  28 NW12      30.21F
HILL CITY      LGT RAIN  61  28  28 N13G21    30.17F
NORTON         CLEAR     59  19  21 NW10G16   30.16F
PHILLIPSBURG   SUNNY     61  28  29 NW6       30.16F
SMITH CENTER   SUNNY     59  30  33 NW3       30.15F
BELOIT         SUNNY     63  30  29 W3G9      30.13F
HAYS           SUNNY     64  30  27 NW9G17    30.16F
RUSSELL        SUNNY     62  33  33 W15       30.14F
CONCORDIA      MOSUNNY   62  33  33 W5G18     30.14F HAZE
SALINA         SUNNY     64  33  31 SW7       30.14F
TOPEKA         PTSUNNY   63  33  32 W7        30.12F



USA.gov is the U.S. government's official web portal to all federal, state and local government web resources and services.